Vancouver, WA
on Sunday, November 11, 2012

Sunday
Previous Day Next Day
Daily Summary
 ActualAverageRecord
Temperature
Mean Temperature °F 48°F  
Max Temperature 47°F 54°F 66°F (1930)
Min Temperature 40°F 41°F 19°F (1911)
Degree Days
Heating Degree Days 21    
Month to date heating degree days 153  
Since 1 July heating degree days 472  
Cooling Degree Days 0    
Month to date cooling degree days 0  
Year to date cooling degree days 398  
Moisture
Dew Point 39°F   
Average Humidity 82    
Maximum Humidity 92    
Minimum Humidity 71    
Precipitation
Precipitation 0.41 in 0.19 in 2.61 in (1995)
Month to date precipitation 0.91 1.96  
Year to date precipitation 32.07 28.42  
Snow
Snow 0.00 in in in ()
Month to date snowfall 0.0  
Since 1 July snowfall 0.0  
Since 1 September snowfall 0.0  
Snow Depth 0.00 in   
Wind
Wind Speed 7 mph   
Max Wind Speed 16 mph   
Max Gust Speed 21 mph   
Visibility 9 miles   
Events Rain   

Key: T is trace of precipitation, MM is missing value
Source: NWS Daily Summary
Time(PST)TemperatureDew PointHumidity Pressure Visibility Wind DirectionWind SpeedGust SpeedPrecipitationEvents Conditions
12:53 AM 41.0°F 36.0°F 82% 30.25 in 10.0 miles SE 3.5 mph - N/A   Overcast
1:53 AM 41.0°F 36.0°F 82% 30.25 in 10.0 miles Calm Calm - N/A   Overcast
2:53 AM 41.0°F 35.1°F 79% 30.25 in 10.0 miles Calm Calm - N/A   Overcast
3:53 AM 39.9°F 35.1°F 83% 30.25 in 10.0 miles Calm Calm - N/A   Scattered Clouds
4:53 AM 41.0°F 35.1°F 79% 30.25 in 10.0 miles Calm Calm - N/A   Overcast
6:53 AM 42.1°F 36.0°F 79% 30.25 in 10.0 miles SSE 3.5 mph - N/A   Overcast
7:53 AM 42.1°F 36.0°F 79% 30.26 in 10.0 miles SSE 3.5 mph - N/A   Overcast
8:53 AM 43.0°F 37.0°F 80% 30.26 in 10.0 miles SSE 5.8 mph - N/A   Overcast
9:53 AM 44.1°F 37.9°F 79% 30.27 in 10.0 miles SSE 5.8 mph - N/A   Overcast
10:53 AM 46.0°F 37.9°F 73% 30.27 in 10.0 miles ESE 9.2 mph - N/A   Overcast
11:53 AM 46.9°F 39.0°F 74% 30.25 in 10.0 miles ESE 6.9 mph - 0.00 in Rain Light Rain
12:53 PM 46.9°F 39.0°F 74% 30.24 in 10.0 miles ESE 9.2 mph - 0.01 in Rain Light Rain
1:53 PM 46.0°F 39.9°F 79% 30.23 in 10.0 miles SE 6.9 mph - 0.04 in Rain Light Rain
2:53 PM 45.0°F 41.0°F 86% 30.23 in 7.0 miles ESE 10.4 mph - 0.02 in Rain Light Rain
3:53 PM 45.0°F 41.0°F 86% 30.22 in 8.0 miles ESE 11.5 mph - 0.02 in Rain Light Rain
4:53 PM 45.0°F 39.9°F 82% 30.21 in 10.0 miles ESE 12.7 mph - 0.02 in Rain Light Rain
5:53 PM 44.1°F 41.0°F 89% 30.21 in 8.0 miles ESE 10.4 mph - 0.04 in Rain Light Rain
6:53 PM 45.0°F 42.1°F 90% 30.21 in 7.0 miles ESE 13.8 mph - 0.04 in Rain Light Rain
7:53 PM 45.0°F 42.1°F 90% 30.20 in 7.0 miles SE 8.1 mph - 0.07 in Rain Rain
8:53 PM 45.0°F 42.1°F 90% 30.19 in 7.0 miles ESE 13.8 mph 17.3 mph 0.05 in Rain Light Rain
9:53 PM 45.0°F 41.0°F 86% 30.19 in 10.0 miles ESE 9.2 mph - 0.03 in Rain Light Rain
10:23 PM 44.6°F 41.0°F 87% 30.19 in 10.0 miles SE 10.4 mph - 0.00 in Rain Light Rain
10:43 PM 44.6°F 42.8°F 93% 30.19 in 6.0 miles ESE 10.4 mph - 0.02 in Rain Light Rain
10:50 PM 44.6°F 42.8°F 93% 30.19 in 9.0 miles ESE 11.5 mph - 0.02 in Rain Light Rain
10:53 PM 45.0°F 42.1°F 90% 30.19 in 9.0 miles ESE 11.5 mph - 0.02 in Rain Light Rain
11:36 PM 44.6°F 42.8°F 93% 30.19 in 7.0 miles ESE 6.9 mph - 0.03 in Rain Rain
11:53 PM 44.1°F 42.1°F 93% 30.19 in 8.0 miles ESE 10.4 mph 16.1 mph 0.05 in Rain Light Rain
Moon Phase
Nov. 11 Nov. 13 Nov. 20 Nov. 28 Dec. 06
Sunrise:07:05 AM (PST) Moon Rise:04:19 AM (PST)11/11
Sunset:04:43 PM (PST) Moon Set:03:15 PM (PST)11/11

Copyright © 2014 The Weather Underground, Inc.